,,Stat6,,Stat2,,Stat8,,Stat9,,Stat10,,Wind1,,Wind1,
time,status,PA1M_AVG,status,PR1M_SUM,status,RH1M_AVG,status,SR1M_AVG,status,TA1M_AVG,status,W1dAve1m,status,W1sAve1m,
2004-06-06, 00:00:00,VALID,917.703,VALID,0,VALID,98.1501,VALID,0.0509425,VALID,20.3665,VALID,344,VALID,0.261433,
2004-06-06, 00:01:00,VALID,917.7,VALID,0,VALID,98.1361,VALID,0.0849042,VALID,20.3754,VALID,352,VALID,0,
2004-06-06, 00:02:00,VALID,917.663,VALID,0,VALID,98.0827,VALID,0.0339617,VALID,20.395,VALID,352,VALID,0,
2004-06-06, 00:03:00,VALID,917.621,VALID,0,VALID,97.9848,VALID,0.0679233,VALID,20.401,VALID,359,VALID,0.393787,
2004-06-06, 00:04:00,VALID,917.6,VALID,0,VALID,97.9682,VALID,0.0679233,VALID,20.3983,VALID,9,VALID,0.192951,
2004-06-06, 00:05:00,VALID,917.608,VALID,0,VALID,97.9644,VALID,0.0169808,VALID,20.3891,VALID,9,VALID,0.0282738,
2004-06-06, 00:06:00,VALID,917.627,VALID,0,VALID,97.9606,VALID,-0.0679233,VALID,20.3938,VALID,9,VALID,0.16061,
2004-06-06, 00:07:00,VALID,917.621,VALID,0,VALID,97.9987,VALID,-0.0509425,VALID,20.3966,VALID,9,VALID,0,
2004-06-06, 00:08:00,VALID,917.617,VALID,0,VALID,97.986,VALID,-0.0509425,VALID,20.3896,VALID,9,VALID,0,
2004-06-06, 00:09:00,VALID,917.627,VALID,0,VALID,98.0077,VALID,-0.0339617,VALID,20.3632,VALID,9,VALID,0.257292,
2004-06-06, 00:10:00,VALID,917.657,VALID,0,VALID,97.9593,VALID,-0.0339617,VALID,20.3605,VALID,9,VALID,0.667614,
2004-06-06, 00:11:00,VALID,917.682,VALID,0,VALID,97.8818,VALID,-0.0339617,VALID,20.3315,VALID,14,VALID,1.02976,
2004-06-06, 00:12:00,VALID,917.711,VALID,0,VALID,98.0585,VALID,-0.0339617,VALID,20.2992,VALID,4,VALID,0.842797,
2004-06-06, 00:13:00,VALID,917.729,VALID,0,VALID,98.2632,VALID,-0.0169808,VALID,20.2857,VALID,15,VALID,1.07374,
2004-06-06, 00:14:00,VALID,917.731,VALID,0,VALID,98.3688,VALID,-0.0849042,VALID,20.2994,VALID,12,VALID,0.878374,
2004-06-06, 00:15:00,VALID,917.727,VALID,0,VALID,98.4705,VALID,-0.0339617,VALID,20.3088,VALID,18,VALID,0.935724,
2004-06-06, 00:16:00,VALID,917.717,VALID,0,VALID,98.5862,VALID,-0.0509425,VALID,20.3185,VALID,19,VALID,0.83346,
2004-06-06, 00:17:00,VALID,917.7,VALID,0,VALID,98.6346,VALID,0,VALID,20.3379,VALID,21,VALID,1.13554,
2004-06-06, 00:18:00,VALID,917.694,VALID,0,VALID,98.5722,VALID,-0.0849042,VALID,20.3444,VALID,14,VALID,1.11509,
2004-06-06, 00:19:00,VALID,917.694,VALID,0,VALID,98.6015,VALID,-0.0509425,VALID,20.3411,VALID,14,VALID,1.11592,
2004-06-06, 00:20:00,VALID,917.685,VALID,0,VALID,98.6104,VALID,0.0509425,VALID,20.3538,VALID,19,VALID,1.17642,
2004-06-06, 00:21:00,VALID,917.699,VALID,0,VALID,98.6282,VALID,0.0679233,VALID,20.3364,VALID,27,VALID,1.40723,
2004-06-06, 00:22:00,VALID,917.688,VALID,0,VALID,98.6396,VALID,0.0679233,VALID,20.3267,VALID,21,VALID,1.26403,
2004-06-06, 00:23:00,VALID,917.689,VALID,0,VALID,98.6574,VALID,0.0339617,VALID,20.3272,VALID,8,VALID,1.34551,
2004-06-06, 00:24:00,VALID,917.68,VALID,0,VALID,98.7363,VALID,0.0339617,VALID,20.317,VALID,9,VALID,1.26217,
2004-06-06, 00:25:00,VALID,917.674,VALID,0,VALID,98.7922,VALID,0.0509425,VALID,20.3178,VALID,2,VALID,1.52195,
2004-06-06, 00:26:00,VALID,917.647,VALID,0,VALID,98.7643,VALID,0.0849042,VALID,20.3006,VALID,354,VALID,1.19438,
2004-06-06, 00:27:00,VALID,917.614,VALID,0,VALID,98.7248,VALID,0.101885,VALID,20.2877,VALID,27,VALID,0.950658,
2004-06-06, 00:28:00,VALID,917.59,VALID,0,VALID,98.7782,VALID,0.0849042,VALID,20.2946,VALID,13,VALID,1.59793,
2004-06-06, 00:29:00,VALID,917.571,VALID,0,VALID,98.7337,VALID,0.101885,VALID,20.3073,VALID,19,VALID,1.02255,
2004-06-06, 00:30:00,VALID,917.544,VALID,0,VALID,98.6867,VALID,0.0679233,VALID,20.3009,VALID,1,VALID,0.591206,
2004-06-06, 00:31:00,VALID,917.515,VALID,0,VALID,98.7058,VALID,0.101885,VALID,20.2839,VALID,351,VALID,0.611328,
2004-06-06, 00:32:00,VALID,917.499,VALID,0,VALID,98.707,VALID,0.0849042,VALID,20.2944,VALID,334,VALID,0.796165,
2004-06-06, 00:33:00,VALID,917.492,VALID,0,VALID,98.6981,VALID,0.0849042,VALID,20.2882,VALID,342,VALID,0.561738,
2004-06-06, 00:34:00,VALID,917.477,VALID,0,VALID,98.6409,VALID,0.0509425,VALID,20.2715,VALID,352,VALID,0.921875,
2004-06-06, 00:35:00,VALID,917.457,VALID,0,VALID,98.6117,VALID,0,VALID,20.2499,VALID,8,VALID,0.634811,
2004-06-06, 00:36:00,VALID,917.432,VALID,0,VALID,98.4947,VALID,-0.0679233,VALID,20.2087,VALID,4,VALID,1.20846,
2004-06-06, 00:37:00,VALID,917.402,VALID,0,VALID,98.3815,VALID,-0.0679233,VALID,20.1861,VALID,353,VALID,1.31534,
2004-06-06, 00:38:00,VALID,917.388,VALID,0,VALID,98.3205,VALID,-0.0679233,VALID,20.209,VALID,3,VALID,1.00798,
2004-06-06, 00:39:00,VALID,917.382,VALID,0,VALID,98.1653,VALID,-0.0679233,VALID,20.2092,VALID,23,VALID,0.55888,
2004-06-06, 00:40:00,VALID,917.355,VALID,0,VALID,98.0433,VALID,-0.0849042,VALID,20.1896,VALID,21,VALID,0.152798,
2004-06-06, 00:41:00,VALID,917.35,VALID,0,VALID,98.0471,VALID,-0.0339617,VALID,20.1864,VALID,21,VALID,0.21439,
2004-06-06, 00:42:00,VALID,917.355,VALID,0,VALID,98.0801,VALID,-0.0679233,VALID,20.1831,VALID,21,VALID,0.00218023,
2004-06-06, 00:43:00,VALID,917.324,VALID,0,VALID,98.0305,VALID,-0.0679233,VALID,20.1802,VALID,21,VALID,0.0774306,
2004-06-06, 00:44:00,VALID,917.305,VALID,0,VALID,98.0916,VALID,-0.0509425,VALID,20.1474,VALID,21,VALID,0.290015,
2004-06-06, 00:45:00,VALID,917.28,VALID,0,VALID,98.1679,VALID,-0.0679233,VALID,20.1382,VALID,21,VALID,0.0543155,
2004-06-06, 00:46:00,VALID,917.249,VALID,0,VALID,98.3039,VALID,-0.0169808,VALID,20.1051,VALID,21,VALID,0.0134943,
2004-06-06, 00:47:00,VALID,917.231,VALID,0,VALID,98.4006,VALID,-0.0679233,VALID,20.0925,VALID,21,VALID,0.0197173,
2004-06-06, 00:48:00,VALID,917.233,VALID,0,VALID,98.3815,VALID,-0.0679233,VALID,20.0828,VALID,21,VALID,0.0299782,
2004-06-06, 00:49:00,VALID,917.23,VALID,0,VALID,98.3052,VALID,-0.101885,VALID,20.0478,VALID,21,VALID,0.00902778,
2004-06-06, 00:50:00,VALID,917.226,VALID,0,VALID,98.1526,VALID,0,VALID,19.9981,VALID,21,VALID,0.418174,
2004-06-06, 00:51:00,VALID,917.206,VALID,0,VALID,98.3929,VALID,0.0339617,VALID,19.975,VALID,21,VALID,0.687891,
2004-06-06, 00:52:00,VALID,917.203,VALID,0,VALID,98.8609,VALID,0.0509425,VALID,19.9943,VALID,10,VALID,1.08333,
2004-06-06, 00:53:00,VALID,917.203,VALID,0,VALID,99.105,VALID,0.0169808,VALID,20.0169,VALID,357,VALID,0.79173,
2004-06-06, 00:54:00,VALID,917.21,VALID,0,VALID,99.2297,VALID,0.0679233,VALID,20.0395,VALID,15,VALID,1.24186,
2004-06-06, 00:55:00,VALID,917.205,VALID,0,VALID,99.2869,VALID,0.0169808,VALID,20.0562,VALID,15,VALID,1.09996,
2004-06-06, 00:56:00,VALID,917.207,VALID,0,VALID,99.3835,VALID,0,VALID,20.0589,VALID,12,VALID,0.655678,
2004-06-06, 00:57:00,VALID,917.199,VALID,0,VALID,99.4293,VALID,0,VALID,20.0654,VALID,352,VALID,0.501736,
2004-06-06, 00:58:00,VALID,917.182,VALID,0,VALID,99.4865,VALID,0.0339617,VALID,20.0852,VALID,2,VALID,0.550305,
2004-06-06, 00:59:00,VALID,917.165,VALID,0,VALID,99.4916,VALID,0.0339617,VALID,20.0683,VALID,12,VALID,0.478379,
2004-06-06, 01:00:00,VALID,917.137,VALID,0,VALID,99.5221,VALID,0,VALID,20.0716,VALID,15,VALID,1.01042,
2004-06-06, 01:01:00,VALID,917.1,VALID,0,VALID,99.5107,VALID,0.0509425,VALID,20.1011,VALID,12,VALID,0.769077,
2004-06-06, 01:02:00,VALID,917.06,VALID,0,VALID,99.4306,VALID,0,VALID,20.0977,VALID,11,VALID,0.648438,
2004-06-06, 01:03:00,VALID,917.033,VALID,0,VALID,99.3606,VALID,0,VALID,20.1143,VALID,9,VALID,0.732813,
2004-06-06, 01:04:00,VALID,917.018,VALID,0,VALID,99.2869,VALID,-0.0169808,VALID,20.1079,VALID,9,VALID,1.12723,
2004-06-06, 01:05:00,VALID,917.01,VALID,0,VALID,99.2055,VALID,-0.0339617,VALID,20.1022,VALID,11,VALID,1.02474,
2004-06-06, 01:06:00,VALID,917.011,VALID,0,VALID,99.0961,VALID,-0.101885,VALID,20.0994,VALID,353,VALID,0.811523,
2004-06-06, 01:07:00,VALID,917.018,VALID,0,VALID,99.0783,VALID,-0.101885,VALID,20.0833,VALID,349,VALID,1.04501,
2004-06-06, 01:08:00,VALID,917.011,VALID,0,VALID,99.0478,VALID,-0.101885,VALID,20.0771,VALID,1,VALID,1.06975,
2004-06-06, 01:09:00,VALID,917.013,VALID,0,VALID,98.9753,VALID,-0.0679233,VALID,20.0577,VALID,7,VALID,0.957919,
2004-06-06, 01:10:00,VALID,916.992,VALID,0,VALID,99.0033,VALID,-0.101885,VALID,20.048,VALID,4,VALID,1.30412,
2004-06-06, 01:11:00,VALID,916.988,VALID,0,VALID,99.1394,VALID,-0.0509425,VALID,20.0572,VALID,354,VALID,1.16853,
2004-06-06, 01:12:00,VALID,916.994,VALID,0,VALID,99.1597,VALID,-0.101885,VALID,20.0835,VALID,350,VALID,1.10665,
2004-06-06, 01:13:00,VALID,916.973,VALID,0,VALID,99.1394,VALID,-0.0849042,VALID,20.0902,VALID,349,VALID,1.1748,
2004-06-06, 01:14:00,VALID,916.965,VALID,0,VALID,99.1025,VALID,-0.0509425,VALID,20.0997,VALID,1,VALID,0.751953,
2004-06-06, 01:15:00,VALID,916.986,VALID,0,VALID,99.0237,VALID,-0.0849042,VALID,20.1094,VALID,5,VALID,1.39453,
2004-06-06, 01:16:00,VALID,916.982,VALID,0,VALID,98.8762,VALID,-0.0849042,VALID,20.1029,VALID,5,VALID,1.16584,
2004-06-06, 01:17:00,VALID,916.978,VALID,0,VALID,98.7604,VALID,-0.0679233,VALID,20.1129,VALID,15,VALID,1.27734,
2004-06-06, 01:18:00,VALID,916.98,VALID,0,VALID,98.6956,VALID,-0.0849042,VALID,20.126,VALID,358,VALID,0.966332,
2004-06-06, 01:19:00,VALID,917.001,VALID,0,VALID,98.6117,VALID,-0.101885,VALID,20.1255,VALID,3,VALID,0.599787,
2004-06-06, 01:20:00,VALID,917.004,VALID,0,VALID,98.5672,VALID,-0.0339617,VALID,20.131,VALID,290,VALID,0.491071,
2004-06-06, 01:21:00,VALID,917.005,VALID,0,VALID,98.6498,VALID,0.0169808,VALID,20.124,VALID,253,VALID,0.279687,
2004-06-06, 01:22:00,VALID,917.014,VALID,0,VALID,98.7503,VALID,0.0169808,VALID,20.1108,VALID,253,VALID,0.184451,
2004-06-06, 01:23:00,VALID,916.986,VALID,0,VALID,98.8444,VALID,0.0169808,VALID,20.1046,VALID,253,VALID,0.261914,
2004-06-06, 01:24:00,VALID,916.977,VALID,0,VALID,98.8418,VALID,0.0339617,VALID,20.0917,VALID,310,VALID,0.425145,
2004-06-06, 01:25:00,VALID,916.969,VALID,0,VALID,98.6841,VALID,0.0169808,VALID,20.0855,VALID,346,VALID,0.792629,
2004-06-06, 01:26:00,VALID,916.979,VALID,0,VALID,98.6371,VALID,0.0169808,VALID,20.1175,VALID,314,VALID,0.489648,
2004-06-06, 01:27:00,VALID,916.953,VALID,0,VALID,98.6091,VALID,0.0339617,VALID,20.1272,VALID,318,VALID,0.379383,
2004-06-06, 01:28:00,VALID,916.959,VALID,0,VALID,98.4718,VALID,0,VALID,20.1272,VALID,336,VALID,0.413352,
2004-06-06, 01:29:00,VALID,916.966,VALID,0,VALID,98.4082,VALID,0,VALID,20.124,VALID,343,VALID,0.40516,
2004-06-06, 01:30:00,VALID,916.958,VALID,0,VALID,98.5036,VALID,0,VALID,20.1143,VALID,348,VALID,0.435764,
2004-06-06, 01:31:00,VALID,916.967,VALID,0,VALID,98.5722,VALID,0.0339617,VALID,20.1044,VALID,4,VALID,0.243832,
2004-06-06, 01:32:00,VALID,916.989,VALID,0,VALID,98.6867,VALID,0,VALID,20.1175,VALID,4,VALID,0.245458,
2004-06-06, 01:33:00,VALID,916.98,VALID,0,VALID,98.8253,VALID,0,VALID,20.1243,VALID,4,VALID,0.412609,
2004-06-06, 01:34:00,VALID,916.996,VALID,0,VALID,98.8024,VALID,0,VALID,20.1108,VALID,11,VALID,0.667783,
2004-06-06, 01:35:00,VALID,917.002,VALID,0,VALID,98.5506,VALID,-0.0509425,VALID,20.0835,VALID,11,VALID,1.03627,
2004-06-06, 01:36:00,VALID,916.991,VALID,0,VALID,98.4349,VALID,-0.101885,VALID,20.0811,VALID,10,VALID,1.19459,
2004-06-06, 01:37:00,VALID,916.978,VALID,0,VALID,98.3726,VALID,-0.135847,VALID,20.0845,VALID,4,VALID,1.34635,
2004-06-06, 01:38:00,VALID,916.94,VALID,0,VALID,98.2353,VALID,-0.101885,VALID,20.0972,VALID,13,VALID,1.60879,
2004-06-06, 01:39:00,VALID,916.925,VALID,0,VALID,97.9949,VALID,-0.0849042,VALID,20.1462,VALID,15,VALID,1.32227,
2004-06-06, 01:40:00,VALID,916.895,VALID,0,VALID,97.7546,VALID,-0.101885,VALID,20.1581,VALID,12,VALID,1.78303,
2004-06-06, 01:41:00,VALID,916.872,VALID,0,VALID,97.5143,VALID,-0.0849042,VALID,20.1973,VALID,11,VALID,1.1468,
2004-06-06, 01:42:00,VALID,916.877,VALID,0,VALID,97.3337,VALID,-0.118866,VALID,20.2068,VALID,353,VALID,0.784028,
2004-06-06, 01:43:00,VALID,916.853,VALID,0,VALID,97.4125,VALID,-0.0679233,VALID,20.2162,VALID,254,VALID,0.6379,
2004-06-06, 01:44:00,VALID,916.839,VALID,0,VALID,97.6758,VALID,-0.101885,VALID,20.2291,VALID,220,VALID,0.480945,
2004-06-06, 01:45:00,VALID,916.818,VALID,0,VALID,97.953,VALID,-0.0849042,VALID,20.2353,VALID,220,VALID,0.269436,
2004-06-06, 01:46:00,VALID,916.802,VALID,0,VALID,98.1208,VALID,-0.101885,VALID,20.2363,VALID,220,VALID,0.00399306,
2004-06-06, 01:47:00,VALID,916.792,VALID,0,VALID,98.206,VALID,-0.101885,VALID,20.2194,VALID,220,VALID,0.0872713,
2004-06-06, 01:48:00,VALID,916.786,VALID,0,VALID,98.2747,VALID,-0.101885,VALID,20.2065,VALID,220,VALID,0,
2004-06-06, 01:49:00,VALID,916.79,VALID,0,VALID,98.3421,VALID,-0.101885,VALID,20.2194,VALID,220,VALID,0,
2004-06-06, 01:50:00,VALID,916.775,VALID,0,VALID,98.4184,VALID,-0.101885,VALID,20.2092,VALID,220,VALID,0.0511364,
2004-06-06, 01:51:00,VALID,916.759,VALID,0,VALID,98.2353,VALID,-0.101885,VALID,20.1998,VALID,218,VALID,0.234896,
2004-06-06, 01:52:00,VALID,916.745,VALID,0,VALID,98.0738,VALID,-0.101885,VALID,20.1941,VALID,42,VALID,0.420759,
2004-06-06, 01:53:00,VALID,916.728,VALID,0,VALID,98.0382,VALID,-0.0509425,VALID,20.2035,VALID,42,VALID,0.199751,
2004-06-06, 01:54:00,VALID,916.703,VALID,0,VALID,98.0051,VALID,-0.101885,VALID,20.1998,VALID,42,VALID,0.216273,
2004-06-06, 01:55:00,VALID,916.694,VALID,0,VALID,97.6758,VALID,-0.0849042,VALID,20.1936,VALID,296,VALID,0.453506,
2004-06-06, 01:56:00,VALID,916.688,VALID,0,VALID,97.56,VALID,-0.0849042,VALID,20.2261,VALID,319,VALID,0.599524,
2004-06-06, 01:57:00,VALID,916.699,VALID,0,VALID,97.5626,VALID,-0.101885,VALID,20.2455,VALID,323,VALID,0.258594,
2004-06-06, 01:58:00,VALID,916.686,VALID,0,VALID,97.4214,VALID,-0.101885,VALID,20.2453,VALID,336,VALID,0.423295,
2004-06-06, 01:59:00,VALID,916.668,VALID,0,VALID,97.3617,VALID,-0.0849042,VALID,20.2423,VALID,19,VALID,0.973133,
2004-06-06, 02:00:00,VALID,916.656,VALID,0,VALID,97.1239,VALID,-0.101885,VALID,20.2165,VALID,18,VALID,0.924826,
2004-06-06, 02:01:00,VALID,916.637,VALID,0,VALID,97.0679,VALID,-0.101885,VALID,20.2065,VALID,19,VALID,0.961846,
2004-06-06, 02:02:00,VALID,916.618,VALID,0,VALID,97.0616,VALID,-0.101885,VALID,20.2132,VALID,27,VALID,1.06424,
2004-06-06, 02:03:00,VALID,916.581,VALID,0,VALID,97.176,VALID,-0.118866,VALID,20.1933,VALID,31,VALID,0.981001,
2004-06-06, 02:04:00,VALID,916.556,VALID,0,VALID,97.1926,VALID,-0.101885,VALID,20.1613,VALID,21,VALID,1.10007,
2004-06-06, 02:05:00,VALID,916.533,VALID,0,VALID,97.1989,VALID,-0.0339617,VALID,20.1439,VALID,20,VALID,1.13486,
2004-06-06, 02:06:00,VALID,916.509,VALID,0,VALID,97.0845,VALID,0,VALID,20.1272,VALID,14,VALID,1.41152,
2004-06-06, 02:07:00,VALID,916.501,VALID,0,VALID,97.0539,VALID,0,VALID,20.124,VALID,10,VALID,1.0918,
2004-06-06, 02:08:00,VALID,916.51,VALID,0,VALID,97.0412,VALID,0,VALID,20.1208,VALID,353,VALID,0.872569,
2004-06-06, 02:09:00,VALID,916.506,VALID,0,VALID,96.9357,VALID,0.0169808,VALID,20.1237,VALID,336,VALID,0.885671,
2004-06-06, 02:10:00,VALID,916.523,VALID,0,VALID,96.8645,VALID,0.0339617,VALID,20.1369,VALID,358,VALID,0.841082,
2004-06-06, 02:11:00,VALID,916.528,VALID,0,VALID,96.7793,VALID,0.0339617,VALID,20.1367,VALID,357,VALID,0.983445,
2004-06-06, 02:12:00,VALID,916.547,VALID,0,VALID,96.7805,VALID,0.0169808,VALID,20.1369,VALID,4,VALID,0.953488,
2004-06-06, 02:13:00,VALID,916.552,VALID,0,VALID,96.7589,VALID,0,VALID,20.1434,VALID,355,VALID,0.69779,
2004-06-06, 02:14:00,VALID,916.554,VALID,0,VALID,96.6915,VALID,0,VALID,20.1434,VALID,1,VALID,0.849023,
2004-06-06, 02:15:00,VALID,916.557,VALID,0,VALID,96.7462,VALID,0.0509425,VALID,20.1528,VALID,357,VALID,1.04967,
2004-06-06, 02:16:00,VALID,916.56,VALID,0,VALID,96.5911,VALID,0,VALID,20.1625,VALID,333,VALID,0.969151,
2004-06-06, 02:17:00,VALID,916.563,VALID,0,VALID,96.6941,VALID,0.0339617,VALID,20.1821,VALID,348,VALID,0.629794,
2004-06-06, 02:18:00,VALID,916.574,VALID,0,VALID,96.628,VALID,0.0169808,VALID,20.1789,VALID,348,VALID,0.845052,
2004-06-06, 02:19:00,VALID,916.565,VALID,0,VALID,96.6699,VALID,0.0339617,VALID,20.1625,VALID,357,VALID,0.583576,
2004-06-06, 02:20:00,VALID,916.55,VALID,0,VALID,96.8454,VALID,0.0169808,VALID,20.159,VALID,357,VALID,0.384266,
2004-06-06, 02:21:00,VALID,916.545,VALID,0,VALID,96.9192,VALID,0.0509425,VALID,20.1496,VALID,357,VALID,0.468205,
2004-06-06, 02:22:00,VALID,916.553,VALID,0,VALID,96.689,VALID,0.0339617,VALID,20.1533,VALID,316,VALID,0.965661,
2004-06-06, 02:23:00,VALID,916.541,VALID,0,VALID,96.731,VALID,0,VALID,20.1983,VALID,325,VALID,0.532924,
2004-06-06, 02:24:00,VALID,916.535,VALID,0,VALID,96.6559,VALID,0.0169808,VALID,20.2276,VALID,2,VALID,0.956845,
2004-06-06, 02:25:01,VALID,916.537,VALID,0,VALID,96.5746,VALID,0,VALID,20.2341,VALID,6,VALID,0.715511,
2004-06-06, 02:26:00,VALID,916.548,VALID,0,VALID,96.5555,VALID,0.0169808,VALID,20.2343,VALID,7,VALID,0.254167,
2004-06-06, 02:27:00,VALID,916.54,VALID,0,VALID,96.5987,VALID,0,VALID,20.2149,VALID,348,VALID,0.510764,
2004-06-06, 02:28:00,VALID,916.537,VALID,0,VALID,96.8505,VALID,0,VALID,20.2246,VALID,290,VALID,0.587754,
2004-06-06, 02:29:00,VALID,916.523,VALID,0,VALID,97.0768,VALID,0.0169808,VALID,20.2142,VALID,299,VALID,0.370139,
2004-06-06, 02:30:00,VALID,916.491,VALID,0,VALID,97.148,VALID,0,VALID,20.208,VALID,352,VALID,0.816311,
2004-06-06, 02:31:00,VALID,916.473,VALID,0,VALID,97.0972,VALID,0.0169808,VALID,20.1754,VALID,346,VALID,0.651228,
2004-06-06, 02:32:00,VALID,916.448,VALID,0,VALID,97.1493,VALID,0.0169808,VALID,20.1657,VALID,352,VALID,0.57867,
2004-06-06, 02:33:00,VALID,916.434,VALID,0,VALID,96.9993,VALID,0,VALID,20.1628,VALID,13,VALID,0.680043,
2004-06-06, 02:34:01,VALID,916.425,VALID,0,VALID,96.9637,VALID,0,VALID,20.1665,VALID,6,VALID,0.751302,
2004-06-06, 02:35:00,VALID,916.413,VALID,0,VALID,97.0336,VALID,0.0339617,VALID,20.1617,VALID,360,VALID,0.114583,
2004-06-06, 02:36:00,VALID,916.397,VALID,0,VALID,97.0743,VALID,0.0849042,VALID,20.1811,VALID,360,VALID,0,
2004-06-06, 02:37:00,VALID,916.374,VALID,0,VALID,97.1608,VALID,0.0509425,VALID,20.1744,VALID,360,VALID,0.00109012,
2004-06-06, 02:38:00,VALID,916.351,VALID,0,VALID,97.1938,VALID,0.0849042,VALID,20.1905,VALID,360,VALID,0.0186435,
2004-06-06, 02:39:01,VALID,916.332,VALID,0,VALID,97.1671,VALID,0.0849042,VALID,20.2,VALID,357,VALID,0.379416,
2004-06-06, 02:40:01,VALID,916.323,VALID,0,VALID,97.026,VALID,0.0849042,VALID,20.2035,VALID,11,VALID,0.802455,
2004-06-06, 02:41:00,VALID,916.297,VALID,0,VALID,97.0692,VALID,0.118866,VALID,20.2099,VALID,20,VALID,0.491655,
2004-06-06, 02:42:00,VALID,916.285,VALID,0,VALID,97.0438,VALID,0.101885,VALID,20.2134,VALID,12,VALID,0.918713,
2004-06-06, 02:43:00,VALID,916.268,VALID,0,VALID,96.7271,VALID,0.101885,VALID,20.1905,VALID,4,VALID,1.48946,
2004-06-06, 02:44:00,VALID,916.267,VALID,0,VALID,96.5326,VALID,0.0849042,VALID,20.1677,VALID,13,VALID,1.21684,
2004-06-06, 02:45:00,VALID,916.261,VALID,0,VALID,96.3851,VALID,0.0679233,VALID,20.1843,VALID,17,VALID,1.90811,
2004-06-06, 02:46:00,VALID,916.279,VALID,0,VALID,96.3419,VALID,0.101885,VALID,20.197,VALID,7,VALID,1.00176,
2004-06-06, 02:47:00,VALID,916.297,VALID,0,VALID,96.3736,VALID,0.0679233,VALID,20.1938,VALID,345,VALID,0.562872,
2004-06-06, 02:48:00,VALID,916.311,VALID,0,VALID,96.3864,VALID,0.101885,VALID,20.1873,VALID,323,VALID,0.321555,
2004-06-06, 02:49:00,VALID,916.312,VALID,0,VALID,96.3546,VALID,0.0849042,VALID,20.1903,VALID,348,VALID,0.778343,
2004-06-06, 02:50:00,VALID,916.3,VALID,0,VALID,96.3329,VALID,0,VALID,20.2144,VALID,9,VALID,0.733574,
2004-06-06, 02:51:00,VALID,916.294,VALID,0,VALID,96.2694,VALID,-0.0169808,VALID,20.2147,VALID,8,VALID,0.939844,
2004-06-06, 02:52:00,VALID,916.288,VALID,0,VALID,96.2261,VALID,-0.0169808,VALID,20.2142,VALID,325,VALID,0.40532,
2004-06-06, 02:53:00,VALID,916.273,VALID,0,VALID,96.2973,VALID,0,VALID,20.208,VALID,305,VALID,0.139717,
2004-06-06, 02:54:00,VALID,916.268,VALID,0,VALID,96.3368,VALID,0,VALID,20.2117,VALID,305,VALID,0.0448289,
2004-06-06, 02:55:01,VALID,916.235,VALID,0,VALID,96.408,VALID,0,VALID,20.2112,VALID,346,VALID,0.372582,
2004-06-06, 02:56:00,VALID,916.201,VALID,0,VALID,96.4652,VALID,-0.0339617,VALID,20.2179,VALID,15,VALID,0.413281,
2004-06-06, 02:57:00,VALID,916.193,VALID,0,VALID,96.5033,VALID,-0.0339617,VALID,20.2214,VALID,9,VALID,0.819404,
2004-06-06, 02:58:00,VALID,916.182,VALID,0,VALID,96.422,VALID,-0.0339617,VALID,20.2047,VALID,352,VALID,0.844322,
2004-06-06, 02:59:00,VALID,916.173,VALID,0,VALID,96.2706,VALID,-0.0339617,VALID,20.1921,VALID,352,VALID,0.857846,
2004-06-06, 03:00:00,VALID,916.148,VALID,0,VALID,96.3495,VALID,0,VALID,20.1886,VALID,353,VALID,0.426067,
2004-06-06, 03:01:01,VALID,916.134,VALID,0,VALID,96.4474,VALID,-0.0169808,VALID,20.1759,VALID,354,VALID,0.0758929,
2004-06-06, 03:02:00,VALID,916.125,VALID,0,VALID,96.5199,VALID,0,VALID,20.1727,VALID,354,VALID,0.12064,
2004-06-06, 03:03:00,VALID,916.103,VALID,0,VALID,96.6865,VALID,0,VALID,20.1595,VALID,355,VALID,0.40532,
2004-06-06, 03:04:00,VALID,916.08,VALID,0,VALID,96.7971,VALID,-0.0169808,VALID,20.1531,VALID,355,VALID,0.33576,
2004-06-06, 03:05:00,VALID,916.05,VALID,0,VALID,96.7882,VALID,-0.0169808,VALID,20.1404,VALID,356,VALID,0.523082,
2004-06-06, 03:06:01,VALID,916.023,VALID,0,VALID,96.7755,VALID,-0.0169808,VALID,20.1208,VALID,360,VALID,0.751302,
2004-06-06, 03:07:01,VALID,915.996,VALID,0,VALID,96.853,VALID,0.0169808,VALID,20.1014,VALID,1,VALID,0.364347,
2004-06-06, 03:08:00,VALID,915.973,VALID,0,VALID,96.9281,VALID,0,VALID,20.0949,VALID,1,VALID,0.139915,
2004-06-06, 03:09:01,VALID,915.963,VALID,0,VALID,97.0527,VALID,0,VALID,20.0952,VALID,1,VALID,0.142223,
2004-06-06, 03:10:00,VALID,915.969,VALID,0,VALID,97.176,VALID,-0.0169808,VALID,20.0952,VALID,1,VALID,0.0616122,
2004-06-06, 03:11:01,VALID,915.962,VALID,0,VALID,97.2154,VALID,0,VALID,20.0852,VALID,1,VALID,0.34375,
2004-06-06, 03:12:00,VALID,915.953,VALID,0,VALID,97.2727,VALID,0.0169808,VALID,20.0818,VALID,9,VALID,1.05669,
2004-06-06, 03:13:00,VALID,915.968,VALID,0,VALID,97.2867,VALID,0,VALID,20.0694,VALID,349,VALID,0.752544,
2004-06-06, 03:14:00,VALID,915.98,VALID,0,VALID,97.2994,VALID,0,VALID,20.046,VALID,359,VALID,1.04616,
2004-06-06, 03:15:00,VALID,915.985,VALID,0,VALID,97.3223,VALID,0,VALID,20.0174,VALID,3,VALID,0.993963,
2004-06-06, 03:16:00,VALID,915.991,VALID,0,VALID,97.3947,VALID,0,VALID,20.0174,VALID,11,VALID,1.01111,
2004-06-06, 03:17:00,VALID,916.006,VALID,0,VALID,97.4469,VALID,0,VALID,20.0048,VALID,20,VALID,1.04115,
2004-06-06, 03:18:01,VALID,916.015,VALID,0,VALID,97.5194,VALID,-0.0169808,VALID,20.0147,VALID,4,VALID,0.374619,
2004-06-06, 03:19:00,VALID,916.024,VALID,0,VALID,97.5867,VALID,-0.0169808,VALID,20.011,VALID,5,VALID,0.3508,
2004-06-06, 03:20:00,VALID,916.025,VALID,0,VALID,97.6516,VALID,-0.0169808,VALID,20.0239,VALID,32,VALID,0.351199,
2004-06-06, 03:21:01,VALID,916.027,VALID,0,VALID,97.7482,VALID,-0.0169808,VALID,20.0435,VALID,32,VALID,0.159157,
2004-06-06, 03:22:00,VALID,916.041,VALID,0,VALID,97.8017,VALID,0,VALID,20.0532,VALID,32,VALID,0.167708,
2004-06-06, 03:23:00,VALID,916.045,VALID,0,VALID,97.8449,VALID,-0.0169808,VALID,20.0567,VALID,32,VALID,0.324128,
2004-06-06, 03:24:01,VALID,916.039,VALID,0,VALID,97.8601,VALID,0,VALID,20.0527,VALID,32,VALID,0.281068,
2004-06-06, 03:25:00,VALID,916.065,VALID,0,VALID,97.9225,VALID,0,VALID,20.0629,VALID,32,VALID,0.160247,
2004-06-06, 03:26:00,VALID,916.072,VALID,0,VALID,98.0051,VALID,0,VALID,20.0562,VALID,32,VALID,0.332711,
2004-06-06, 03:27:01,VALID,916.072,VALID,0,VALID,98.0687,VALID,0,VALID,20.0696,VALID,32,VALID,0.115625,
2004-06-06, 03:28:00,VALID,916.071,VALID,0,VALID,98.0928,VALID,-0.0339617,VALID,20.0664,VALID,32,VALID,0.037064,
2004-06-06, 03:29:00,VALID,916.058,VALID,0,VALID,98.1412,VALID,0,VALID,20.0602,VALID,32,VALID,0.0014881,
2004-06-06, 03:30:01,VALID,916.041,VALID,0,VALID,98.1793,VALID,0.0169808,VALID,20.05,VALID,32,VALID,0,
2004-06-06, 03:31:00,VALID,916.023,VALID,0,VALID,98.2493,VALID,0,VALID,20.0433,VALID,32,VALID,0.303043,
2004-06-06, 03:32:00,VALID,916.006,VALID,0,VALID,98.2721,VALID,-0.0339617,VALID,20.0371,VALID,21,VALID,0.569336,
2004-06-06, 03:33:00,VALID,916.016,VALID,0,VALID,98.309,VALID,-0.0169808,VALID,20.0209,VALID,20,VALID,0.585366,
2004-06-06, 03:34:01,VALID,916.047,VALID,0,VALID,98.3306,VALID,-0.0679233,VALID,20.005,VALID,20,VALID,0.504542,